YO6IKB-10 Weather Reports


time (UTC)temp
C
wind
direction
speed
KPH
gust
KPH
rain 1hr
cm
rain 24hr
cm
rain mn
cm
humidity
%
barometer
mb
20260505004710 8 22 0.0 3.2 0.00 0.00 0.00 77 1012.6
20260505004210 8 22 3.2 3.2 0.00 0.00 0.00 77 1012.7
20260505003710 8 22 0.0 1.6 0.00 0.00 0.00 76 1012.6
20260505003209 8 22 0.0 0.0 0.00 0.00 0.00 76 1012.7
20260505002709 8 22 0.0 0.0 0.00 0.00 0.00 76 1012.5
20260505002209 8 22 0.0 3.2 0.00 0.00 0.00 76 1012.6
20260505001709 8 0 0.0 0.0 0.00 0.00 0.00 75 1012.5
20260505001208 8 0 0.0 0.0 0.00 0.00 0.00 75 1012.4
20260505000708 8 22 0.0 0.0 0.00 0.00 0.00 75 1012.5
20260505000208 8 22 0.0 0.0 0.00 0.00 0.00 75 1012.5
20260504235707 8 22 0.0 1.6 0.00 0.00 0.00 75 1012.5
20260504235207 9 22 0.0 0.0 0.00 0.00 0.00 74 1012.4
20260504234707 9 22 0.0 0.0 0.00 0.00 0.00 74 1012.4
20260504234207 9 22 0.0 0.0 0.00 0.00 0.00 74 1012.4
20260504233706 9 22 0.0 0.0 0.00 0.00 0.00 74 1012.4
20260504233206 9 22 0.0 3.2 0.00 0.00 0.00 74 1012.5
20260504232706 9 22 3.2 3.2 0.00 0.00 0.00 74 1012.5
20260504232205 9 112 0.0 1.6 0.00 0.00 0.00 73 1012.5
20260504231705 10 112 0.0 0.0 0.00 0.00 0.00 73 1012.4
20260504231205 10 112 0.0 0.0 0.00 0.00 0.00 72 1012.6
20260504230705 10 112 0.0 0.0 0.00 0.00 0.00 72 1012.5
20260504230204 10 112 0.0 0.0 0.00 0.00 0.00 72 1012.6
20260504225704 10 112 0.0 0.0 0.00 0.00 0.00 71 1012.6
20260504225204 10 112 0.0 0.0 0.00 0.00 0.00 71 1012.6
20260504224703 10 112 0.0 0.0 0.00 0.00 0.00 72 1012.5
20260504224203 10 112 0.0 1.6 0.00 0.00 0.00 71 1012.6
20260504223703 10 112 0.0 0.0 0.00 0.00 0.00 69 1012.5
20260504223202 10 112 0.0 0.0 0.00 0.00 0.00 69 1012.5
20260504222702 10 112 0.0 0.0 0.00 0.00 0.00 69 1012.5
20260504222202 11 112 0.0 0.0 0.00 0.00 0.00 68 1012.5
20260504221702 11 112 0.0 0.0 0.00 0.00 0.00 67 1012.5
20260504221201 11 112 0.0 0.0 0.00 0.00 0.00 67 1012.5
20260504220701 11 112 0.0 0.0 0.00 0.00 0.00 66 1012.5
20260504220201 11 112 0.0 0.0 0.00 0.00 0.00 66 1012.4
20260504215700 11 112 0.0 0.0 0.00 0.00 0.00 65 1012.5
20260504215200 11 112 0.0 0.0 0.00 0.00 0.00 65 1012.4
20260504214700 11 112 0.0 0.0 0.00 0.00 0.00 66 1012.5
20260504214200 11 112 0.0 1.6 0.00 0.00 0.00 66 1012.4
20260504213659 12 112 0.0 0.0 0.00 0.00 0.00 66 1012.4
20260504213159 12 112 0.0 0.0 0.00 0.00 0.00 65 1012.4
20260504212659 12 112 0.0 0.0 0.00 0.00 0.00 65 1012.5
20260504212158 12 112 0.0 0.0 0.00 0.00 0.00 65 1012.4
20260504211658 12 112 0.0 1.6 0.00 0.00 0.00 66 1012.4
20260504211158 12 112 1.6 1.6 0.00 0.00 0.00 65 1012.4
20260504210657 12 112 0.0 0.0 0.00 0.00 0.00 66 1012.4
20260504210157 12 112 0.0 0.0 0.00 0.00 0.00 66 1012.4
20260504205657 12 112 0.0 0.0 0.00 0.00 0.00 66 1012.4
20260504205157 12 112 0.0 0.0 0.00 0.00 0.00 67 1012.4
20260504204656 12 112 0.0 1.6 0.00 0.00 0.00 67 1012.3
20260504204156 12 112 1.6 1.6 0.00 0.00 0.00 67 1012.3
20260504203656 12 112 0.0 0.0 0.00 0.00 0.00 67 1012.3
20260504203155 12 112 0.0 0.0 0.00 0.00 0.00 68 1012.3
20260504202655 12 112 0.0 0.0 0.00 0.00 0.00 68 1012.4
20260504202155 12 112 0.0 0.0 0.00 0.00 0.00 67 1012.3
20260504201655 12 112 0.0 0.0 0.00 0.00 0.00 66 1012.3
20260504201154 13 112 0.0 1.6 0.00 0.00 0.00 65 1012.2
20260504200654 13 112 0.0 0.0 0.00 0.00 0.00 64 1012.2
20260504200154 13 112 0.0 0.0 0.00 0.00 0.00 64 1012.2
20260504195653 13 112 0.0 0.0 0.00 0.00 0.00 64 1012.2
20260504195153 13 112 0.0 0.0 0.00 0.00 0.00 63 1012.1
20260504194653 13 112 0.0 0.0 0.00 0.00 0.00 63 1012.2
20260504194152 13 112 0.0 0.0 0.00 0.00 0.00 64 1012.2
20260504193652 13 112 0.0 0.0 0.00 0.00 0.00 63 1012.1
20260504193152 14 112 0.0 0.0 0.00 0.00 0.00 63 1012.1
20260504192652 14 112 0.0 1.6 0.00 0.00 0.00 63 1012.1
20260504192151 14 112 0.0 3.2 0.00 0.00 0.00 62 1012.1
20260504191651 14 112 0.0 1.6 0.00 0.00 0.00 62 1012.1
20260504191151 15 112 0.0 0.0 0.00 0.00 0.00 61 1012.1
20260504190650 15 112 0.0 3.2 0.00 0.00 0.00 61 1012.1
20260504190150 15 112 0.0 0.0 0.00 0.00 0.00 60 1012.2
20260504185650 15 112 0.0 1.6 0.00 0.00 0.00 60 1012.2
20260504185150 15 112 0.0 0.0 0.00 0.00 0.00 59 1012.1
20260504184649 15 112 0.0 1.6 0.00 0.00 0.00 60 1012.2
20260504184149 15 112 1.6 3.2 0.00 0.00 0.00 59 1012.0
20260504183649 15 112 0.0 0.0 0.00 0.00 0.00 59 1012.1
20260504183148 16 112 0.0 1.6 0.00 0.00 0.00 59 1012.0
20260504182648 16 112 0.0 0.0 0.00 0.00 0.00 58 1011.9
20260504182148 16 112 0.0 3.2 0.00 0.00 0.00 59 1011.9
20260504181647 16 112 1.6 3.2 0.00 0.00 0.00 59 1012.0
20260504181147 16 112 0.0 4.8 0.00 0.00 0.00 58 1011.8
20260504180647 16 112 4.8 4.8 0.00 0.00 0.00 58 1011.8
20260504180147 16 90 0.0 0.0 0.00 0.00 0.00 59 1011.7
20260504175646 16 90 0.0 4.8 0.00 0.00 0.00 57 1011.6
20260504175146 17 90 3.2 3.2 0.00 0.00 0.00 57 1011.6
20260504174646 17 90 0.0 1.6 0.00 0.00 0.00 56 1011.5
20260504174147 17 90 0.0 4.8 0.00 0.00 0.00 57 1011.5
20260504173645 17 90 3.2 3.2 0.00 0.00 0.00 56 1011.5
20260504173145 17 90 0.0 3.2 0.00 0.00 0.00 55 1011.5
20260504172645 17 90 0.0 4.8 0.00 0.00 0.00 55 1011.4
20260504172145 18 90 0.0 1.6 0.00 0.00 0.00 55 1011.5
20260504171644 18 90 0.0 3.2 0.00 0.00 0.00 54 1011.4
20260504171144 18 90 3.2 4.8 0.00 0.00 0.00 53 1011.4
20260504170643 18 67 0.0 0.0 0.00 0.00 0.00 53 1011.3
20260504170143 18 67 0.0 1.6 0.00 0.00 0.00 52 1011.3
20260504160140 20 157 0.0 1.6 0.00 0.00 0.00 51 1010.9
20260504151137 22 0 0.0 0.0 0.00 0.00 0.00 50 1010.9
20260504150636 21 0 0.0 0.0 0.00 0.00 0.00 53 1010.9
20260504150136 20 0 0.0 0.0 0.00 0.00 0.00 56 1010.9
20260504141133 23 292 0.0 4.8 0.00 0.00 0.00 40 1011.4
20260504140633 23 292 0.0 3.2 0.00 0.00 0.00 41 1011.4
20260504140133 23 292 0.0 6.4 0.00 0.00 0.00 41 1011.4
20260504130630 24 292 3.2 9.7 0.00 0.00 0.00 40 1011.9
20260504130129 24 292 3.2 11.3 0.00 0.00 0.00 40 1012.0
20260504120126 24 292 8.0 22.5 0.00 0.00 0.00 40 1012.5
20260504110622 23 315 0.0 14.5 0.00 0.00 0.00 41 1013.2
20260504110122 22 292 4.8 17.7 0.00 0.00 0.00 42 1013.1
20260504100118 22 292 6.4 12.9 0.00 0.00 0.00 43 1013.7
20260504090115 20 292 1.6 22.5 0.00 0.00 0.00 45 1014.1
20260504081612 18 292 6.4 25.7 0.00 0.00 0.00 46 1014.3
20260504081112 18 0 0.0 22.5 0.00 0.00 0.00 46 1014.3
20260504080612 18 292 9.7 19.3 0.00 0.00 0.00 45 1014.3
20260504080111 18 292 16.1 27.4 0.00 0.00 0.00 46 1014.3
20260504070108 17 337 6.4 20.9 0.00 0.00 0.00 46 1014.3
20260504060104 17 292 0.0 8.0 0.00 0.00 0.00 49 1014.5
20260504050601 15 292 0.0 6.4 0.00 0.00 0.00 54 1014.6
20260504045601 14 292 0.0 6.4 0.00 0.00 0.00 56 1014.5
20260504045100 13 292 0.0 3.2 0.00 0.00 0.00 57 1014.6
20260504044600 12 292 0.0 3.2 0.00 0.00 0.00 58 1014.6
20260504044100 12 292 0.0 3.2 0.00 0.00 0.00 60 1014.6
20260504043559 11 292 0.0 6.4 0.00 0.00 0.00 61 1014.7
20260504043059 11 0 0.0 1.6 0.00 0.00 0.00 62 1014.6
20260504042559 10 0 0.0 3.2 0.00 0.00 0.00 64 1014.6
20260504042059 9 0 0.0 0.0 0.00 0.00 0.00 65 1014.7
20260504041558 8 0 0.0 0.0 0.00 0.00 0.00 66 1014.7
20260504041058 8 0 0.0 1.6 0.00 0.00 0.00 67 1014.7
20260504040558 8 0 0.0 0.0 0.00 0.00 0.00 67 1014.7
20260504040057 8 0 0.0 1.6 0.00 0.00 0.00 67 1014.6
20260504035557 7 292 0.0 0.0 0.00 0.00 0.00 67 1014.6
20260504035057 7 292 0.0 0.0 0.00 0.00 0.00 67 1014.6
20260504034557 7 292 0.0 0.0 0.00 0.00 0.00 67 1014.6
20260504034056 7 292 0.0 0.0 0.00 0.00 0.00 67 1014.7
20260504033556 7 292 0.0 0.0 0.00 0.00 0.00 68 1014.6
20260504033056 7 292 0.0 1.6 0.00 0.00 0.00 68 1014.7
20260504032555 7 292 0.0 1.6 0.00 0.00 0.00 68 1014.6
20260504032055 7 292 0.0 0.0 0.00 0.00 0.00 67 1014.6
20260504031555 7 292 0.0 0.0 0.00 0.00 0.00 67 1014.6
20260504031054 7 292 0.0 0.0 0.00 0.00 0.00 67 1014.5
20260504030554 7 292 0.0 0.0 0.00 0.00 0.00 68 1014.5
20260504030054 7 292 0.0 0.0 0.00 0.00 0.00 67 1014.5
20260504025554 7 292 0.0 0.0 0.00 0.00 0.00 67 1014.6
20260504025053 7 292 0.0 0.0 0.00 0.00 0.00 67 1014.7
20260504024553 7 292 0.0 0.0 0.00 0.00 0.00 66 1014.5
20260504024053 7 292 0.0 0.0 0.00 0.00 0.00 65 1014.6
20260504023552 7 292 0.0 0.0 0.00 0.00 0.00 65 1014.7
20260504023052 7 292 0.0 0.0 0.00 0.00 0.00 65 1014.7
20260504022552 7 292 0.0 0.0 0.00 0.00 0.00 65 1014.7
20260504022051 7 292 0.0 1.6 0.00 0.00 0.00 65 1014.7
20260504021551 7 315 0.0 0.0 0.00 0.00 0.00 65 1014.8
20260504021051 7 0 0.0 6.4 0.00 0.00 0.00 65 1014.8
20260504020551 7 292 0.0 8.0 0.00 0.00 0.00 64 1014.8
20260504020050 7 292 3.2 4.8 0.00 0.00 0.00 63 1014.7
20260504015550 7 292 0.0 3.2 0.00 0.00 0.00 63 1014.7
20260504015050 7 292 3.2 3.2 0.00 0.00 0.00 63 1014.7
20260504014549 7 292 1.6 4.8 0.00 0.00 0.00 63 1014.7
20260504014049 7 292 3.2 4.8 0.00 0.00 0.00 63 1014.7
20260504013549 8 292 0.0 8.0 0.00 0.00 0.00 63 1014.7
20260504013049 7 292 3.2 6.4 0.00 0.00 0.00 63 1014.6
20260504012548 7 292 3.2 8.0 0.00 0.00 0.00 62 1014.7
20260504012048 7 315 3.2 3.2 0.00 0.00 0.00 62 1014.7
20260504011548 7 315 0.0 4.8 0.00 0.00 0.00 62 1014.8
20260504011047 7 315 3.2 8.0 0.00 0.00 0.00 62 1014.5
20260504010547 8 292 1.6 6.4 0.00 0.00 0.00 62 1014.6
20260504010047 8 292 4.8 8.0 0.00 0.00 0.00 62 1014.5
20260504005547 8 292 0.0 3.2 0.00 0.00 0.00 62 1014.3